User: anonymous   Login
Location: Syracuse
(43.0480°N, 76.1480°W)
Time: 05:21:49
(UTC-04:00)
Language:

Cosmos 1140 Rocket - Orbit

View from above orbital plane
View from above orbital plane
View from above satellite
View from above satellite

Ground track
Ground track

The orbit data is extracted from the following two-line orbital elements,

1 11574U 79089B   17083.89832158 +.00000034 +00000-0 +18919-4 0  9993
2 11574 074.0718 014.6249 0016869 298.5061 061.4396 14.40619860964810
Epoch (UTC): 24 March 2017 21:33:34
Eccentricity: 0.0016869
inclination: 74.0718°
perigee height: 744 km
apogee height: 768 km
right ascension of ascending node: 14.6249°
argument of perigee: 298.5061°
revolutions per day: 14.40619860
mean anomaly at epoch: 61.4396°
orbit number at epoch: 96481

The dashed part of the orbit path shows where the satellite is in the earth's shadow,  

DLR